IW1RCO-13 Weather Reports


time (UTC)temp
F
wind
direction
speed
knots
gust
knots
rain 1hr
in
rain 24hr
in
rain mn
in
humidity
%
barometer
mb
20260506230403 50 0.0 0.0 0.00 0.00 0.00 95 1010.7
20260506225859 49 0.0 0.0 0.00 0.00 0.00 95 1010.7
20260506225402 49 0.0 0.0 0.00 0.00 0.00 95 1011.2
20260506224859 50 0.0 0.0 0.00 0.00 0.00 95 1011.0
20260506224402 50 0.0 0.0 0.00 0.00 0.00 95 1011.1
20260506215901 51 0.0 0.0 0.00 0.00 0.00 93 1010.7
20260506215404 50 0.0 0.0 0.00 0.00 0.00 93 1012.0
20260506214901 50 0.0 0.0 0.00 0.00 0.00 94 1011.1
20260506214404 50 0.0 0.0 0.00 0.00 0.00 94 1010.7
20260506213901 50 0.0 0.0 0.00 0.00 0.00 94 1012.0
20260506213404 50 0.0 0.0 0.00 0.00 0.00 94 1011.8
20260506212901 49 0.0 0.0 0.00 0.00 0.00 95 1010.9
20260506212404 48 0.0 0.0 0.00 0.00 0.00 94 1011.5
20260506211900 48 0.0 0.0 0.00 0.00 0.00 96 1011.3
20260506211404 47 0.0 0.0 0.00 0.00 0.00 94 1011.5
20260506210900 48 0.0 0.0 0.00 0.00 0.00 95 1011.6
20260506210404 47 0.0 0.0 0.00 0.00 0.00 94 1011.5
20260506205900 47 0.0 0.0 0.00 0.00 0.00 95 1011.0
20260506205404 47 0.0 0.0 0.00 0.00 0.00 95 1010.4
20260506204900 47 0.0 0.0 0.00 0.00 0.00 94 1010.8
20260506204403 47 0.0 0.0 0.00 0.00 0.00 94 1010.9
20260506203900 47 0.0 0.0 0.00 0.00 0.00 94 1011.0
20260506203403 48 0.0 0.0 0.00 0.00 0.00 94 1010.4
20260506202859 48 0.0 0.0 0.00 0.00 0.00 94 1010.9
20260506201859 49 0.0 0.0 0.00 0.00 0.00 92 1011.2
20260506201402 49 0.0 0.0 0.00 0.00 0.00 92 1010.7
20260506200859 50 0.0 0.0 0.00 0.00 0.00 92 1010.7
20260506200402 50 0.0 0.0 0.00 0.00 0.00 91 1010.9
20260506195859 50 0.0 0.0 0.00 0.00 0.00 91 1010.9
20260506195402 50 0.0 0.0 0.00 0.00 0.00 93 1011.4
20260506194905 50 0.0 0.0 0.00 0.00 0.00 92 1010.6
20260506194402 51 0.0 0.0 0.00 0.00 0.00 92 1010.8
20260506193907 51 0.0 0.0 0.00 0.00 0.00 90 1010.8
20260506193402 51 0.0 0.0 0.00 0.00 0.00 92 1010.7
20260506192905 51 0.0 0.0 0.00 0.00 0.00 91 1010.5
20260506192402 51 0.0 0.0 0.00 0.00 0.00 92 1010.4
20260506191905 51 0.0 0.0 0.00 0.00 0.00 92 1009.8
20260506191401 51 0.0 0.0 0.00 0.00 0.00 92 1010.1
20260506190905 51 0.0 0.0 0.00 0.00 0.00 90 1010.2
20260506190401 52 0.0 0.0 0.00 0.00 0.00 91 1010.5
20260506185904 52 0.0 0.0 0.00 0.00 0.00 91 1010.1
20260506185401 52 0.0 0.0 0.00 0.00 0.00 91 1009.9
20260506184904 51 0.0 0.0 0.00 0.00 0.00 91 1010.7
20260506184401 51 0.0 0.0 0.00 0.00 0.00 91 1010.7
20260506183904 51 0.0 0.0 0.00 0.00 0.00 92 1010.0
20260506180400 52 0.0 0.0 0.00 0.00 0.00 93 1008.4
20260506175903 53 0.0 0.0 0.00 0.00 0.00 92 1009.3
20260506175400 53 0.0 0.0 0.00 0.00 0.00 91 1008.3
20260506174903 53 0.0 0.0 0.00 0.00 0.00 88 1008.4
20260506174400 52 0.0 0.0 0.00 0.00 0.00 89 1008.9
20260506173903 53 0.0 0.0 0.00 0.00 0.00 89 1008.8
20260506173359 53 0.0 0.0 0.00 0.00 0.00 89 1008.6
20260506172902 53 0.0 0.0 0.00 0.00 0.00 89 1008.1
20260506172359 53 0.0 0.0 0.00 0.00 0.00 88 1009.0
20260506171902 53 0.0 0.0 0.00 0.00 0.00 87 1007.9
20260506171406 53 0.0 0.0 0.00 0.00 0.00 88 1008.2
20260506170902 53 0.0 0.0 0.00 0.00 0.00 87 1008.4
20260506170405 54 0.0 0.0 0.00 0.00 0.00 88 1008.1
20260506165902 54 0.0 0.0 0.00 0.00 0.00 86 1008.4
20260506165405 54 0.0 0.0 0.00 0.00 0.00 87 1007.7
20260506164902 54 0.0 0.0 0.00 0.00 0.00 86 1008.2
20260506164405 53 0.0 0.0 0.00 0.00 0.00 87 1007.8
20260506163902 54 0.0 0.0 0.00 0.00 0.00 90 1007.8
20260506163405 54 0.0 0.0 0.00 0.00 0.00 89 1008.3
20260506162901 55 0.0 0.0 0.00 0.00 0.00 87 1008.5
20260506162405 55 0.0 0.0 0.00 0.00 0.00 86 1008.3
20260506161901 57 0.0 0.0 0.00 0.00 0.00 82 1007.9
20260506161404 56 0.0 0.0 0.00 0.00 0.00 85 1008.6
20260506160901 54 0.0 0.0 0.00 0.00 0.00 88 1008.1
20260506160404 54 0.0 0.0 0.00 0.00 0.00 87 1007.7
20260506155901 55 0.0 0.0 0.00 0.00 0.00 83 1007.8
20260506155404 55 0.0 0.0 0.00 0.00 0.00 85 1008.1
20260506154900 55 0.0 0.0 0.00 0.00 0.00 87 1007.9
20260506154404 55 0.0 0.0 0.00 0.00 0.00 87 1007.8
20260506153900 55 0.0 0.0 0.00 0.00 0.00 86 1007.7
20260506153404 56 0.0 0.0 0.00 0.00 0.00 83 1008.3
20260506152900 57 0.0 0.0 0.00 0.00 0.00 80 1007.9
20260506152403 60 0.0 0.0 0.00 0.00 0.00 78 1007.8
20260506151900 58 0.0 0.0 0.00 0.00 0.00 78 1007.5
20260506151403 57 0.0 0.0 0.00 0.00 0.00 82 1008.1
20260506150900 57 0.0 0.0 0.00 0.00 0.00 82 1008.1
20260506150403 57 0.0 0.0 0.00 0.00 0.00 81 1008.1
20260506145859 57 0.0 0.0 0.00 0.00 0.00 81 1007.8
20260506145403 58 0.0 0.0 0.00 0.00 0.00 77 1007.9
20260506144859 57 0.0 0.0 0.00 0.00 0.00 81 1008.1
20260506144402 57 0.0 0.0 0.00 0.00 0.00 82 1008.2
20260506140401 60 0.0 0.0 0.00 0.00 0.00 80 1007.8
20260506135904 60 0.0 0.0 0.00 0.00 0.00 81 1007.9
20260506135401 62 0.0 0.0 0.00 0.00 0.00 77 1007.7
20260506134904 61 0.0 0.0 0.00 0.00 0.00 81 1007.9
20260506134401 61 0.0 0.0 0.00 0.00 0.00 82 1008.6
20260506133904 59 0.0 0.0 0.00 0.00 0.00 86 1008.1
20260506133401 57 0.0 0.0 0.00 0.00 0.00 88 1008.3
20260506132904 58 0.0 0.0 0.00 0.00 0.00 86 1008.1
20260506132400 59 0.0 0.0 0.00 0.00 0.00 83 1007.7
20260506131904 57 0.0 0.0 0.00 0.00 0.00 88 1008.1
20260506131401 56 0.0 0.0 0.00 0.00 0.00 90 1008.5
20260506130903 56 0.0 0.0 0.00 0.00 0.00 90 1008.2
20260506130400 57 0.0 0.0 0.00 0.00 0.00 89 1007.7
20260506125903 56 0.0 0.0 0.00 0.00 0.00 89 1008.3
20260506125400 56 0.0 0.0 0.00 0.00 0.00 88 1008.7
20260506124903 56 0.0 0.0 0.00 0.00 0.00 84 1008.3
20260506124359 57 0.0 0.0 0.00 0.00 0.00 87 1007.9
20260506123903 59 0.0 0.0 0.00 0.00 0.00 85 1007.9
20260506123359 57 0.0 0.0 0.00 0.00 0.00 87 1008.6
20260506122902 58 0.0 0.0 0.00 0.00 0.00 87 1008.1
20260506122359 59 0.0 0.0 0.00 0.00 0.00 87 1008.2
20260506121359 58 0.0 0.0 0.00 0.00 0.00 89 1008.1
20260506120902 57 0.0 0.0 0.00 0.00 0.00 91 1008.5
20260506120405 55 0.0 0.0 0.00 0.00 0.00 96 1007.9
20260506115902 54 0.0 0.0 0.00 0.00 0.00 96 1008.3
20260506115405 54 0.0 0.0 0.00 0.00 0.00 95 1008.3
20260506114901 55 0.0 0.0 0.00 0.00 0.00 94 1008.9
20260506114405 55 0.0 0.0 0.00 0.00 0.00 94 1008.3
20260506113901 54 0.0 0.0 0.00 0.00 0.00 97 1008.4
20260506113405 53 0.0 0.0 0.00 0.00 0.00 98 1007.9
20260506112901 53 0.0 0.0 0.00 0.00 0.00 99 1007.9
20260506112404 53 0.0 0.0 0.00 0.00 0.00 99 1008.1
20260506111901 53 0.0 0.0 0.00 0.00 0.00 99 1007.8
20260506111404 53 0.0 0.0 0.00 0.00 0.00 99 1008.1
20260506110901 52 0.0 0.0 0.00 0.00 0.00 99 1008.3
20260506110404 53 0.0 0.0 0.00 0.00 0.00 99 1008.1
20260506105900 53 0.0 0.0 0.00 0.00 0.00 99 1008.1
20260506105404 53 0.0 0.0 0.00 0.00 0.00 99 1008.4
20260506104900 53 0.0 0.0 0.00 0.00 0.00 99 1008.5
20260506104404 53 0.0 0.0 0.00 0.00 0.00 99 1007.7
20260506103900 53 0.0 0.0 0.00 0.00 0.00 99 1008.1
20260506100403 53 0.0 0.0 0.00 0.00 0.00 99 1007.4
20260506095859 54 0.0 0.0 0.00 0.00 0.00 99 1007.4
20260506095403 54 0.0 0.0 0.00 0.00 0.00 99 1007.5
20260506094859 54 0.0 0.0 0.00 0.00 0.00 99 1007.7
20260506094402 53 0.0 0.0 0.00 0.00 0.00 99 1007.7
20260506093859 53 0.0 0.0 0.00 0.00 0.00 99 1007.4
20260506093402 54 0.0 0.0 0.00 0.00 0.00 99 1007.9
20260506092905 54 0.0 0.0 0.00 0.00 0.00 99 1007.6
20260506092402 54 0.0 0.0 0.00 0.00 0.00 99 1007.6
20260506091905 54 0.0 0.0 0.00 0.00 0.00 99 1007.8
20260506091402 54 0.0 0.0 0.00 0.00 0.00 99 1007.6
20260506090905 54 0.0 0.0 0.00 0.00 0.00 99 1007.6
20260506090401 54 0.0 0.0 0.00 0.00 0.00 99 1008.5
20260506085905 54 0.0 0.0 0.00 0.00 0.00 99 1008.1
20260506085401 54 0.0 0.0 0.00 0.00 0.00 99 1007.5
20260506084905 54 0.0 0.0 0.00 0.00 0.00 99 1007.7
20260506084401 54 0.0 0.0 0.00 0.00 0.00 99 1007.6
20260506083904 54 0.0 0.0 0.00 0.00 0.00 99 1007.2
20260506083401 54 0.0 0.0 0.00 0.00 0.00 99 1007.5
20260506082904 53 0.0 0.0 0.00 0.00 0.00 98 1007.6
20260506082401 54 0.0 0.0 0.00 0.00 0.00 98 1007.5
20260506081904 52 0.0 0.0 0.00 0.00 0.00 98 1007.7
20260506081409 52 0.0 0.0 0.00 0.00 0.00 95 1007.2
20260506080904 53 0.0 0.0 0.00 0.00 0.00 93 1007.5
20260506080400 54 0.0 0.0 0.00 0.00 0.00 96 1007.6
20260506073359 54 0.0 0.0 0.00 0.00 0.00 97 1007.5
20260506072903 54 0.0 0.0 0.00 0.00 0.00 97 1007.5
20260506072359 54 0.0 0.0 0.00 0.00 0.00 97 1007.1
20260506071903 54 0.0 0.0 0.00 0.00 0.00 97 1007.6
20260506071359 54 0.0 0.0 0.00 0.00 0.00 97 1008.0
20260506070902 54 0.0 0.0 0.00 0.00 0.00 97 1007.5
20260506070359 54 0.0 0.0 0.00 0.00 0.00 96 1007.7
20260506060404 53 0.0 0.0 0.00 0.00 0.00 98 1007.8
20260506051403 53 0.0 0.0 0.00 0.00 0.00 98 1007.7
20260506050900 53 0.0 0.0 0.00 0.00 0.00 99 1007.6
20260506050403 53 0.0 0.0 0.00 0.00 0.00 99 1007.5
20260506044859 53 0.0 0.0 0.00 0.00 0.00 99 1008.3
20260506044402 53 0.0 0.0 0.00 0.00 0.00 99 1008.1
20260506043859 53 0.0 0.0 0.00 0.00 0.00 99 1007.7
20260506043402 53 0.0 0.0 0.00 0.00 0.00 99 1007.9
20260506042903 53 0.0 0.0 0.00 0.00 0.00 99 1007.7
20260506042402 53 0.0 0.0 0.00 0.00 0.00 99 1007.5
20260506041905 53 0.0 0.0 0.00 0.00 0.00 99 1007.9
20260506041402 53 0.0 0.0 0.00 0.00 0.00 99 1007.5
20260506040905 53 0.0 0.0 0.00 0.00 0.00 99 1007.5
20260506040402 52 0.0 0.0 0.00 0.00 0.00 99 1008.0
20260506035905 52 0.0 0.0 0.00 0.00 0.00 98 1007.7
20260506035401 52 0.0 0.0 0.00 0.00 0.00 99 1008.3
20260506034905 52 0.0 0.0 0.00 0.00 0.00 99 1008.1
20260506034401 52 0.0 0.0 0.00 0.00 0.00 98 1008.0
20260506033904 52 0.0 0.0 0.00 0.00 0.00 99 1008.1
20260506033401 52 0.0 0.0 0.00 0.00 0.00 98 1008.2
20260506032904 53 0.0 0.0 0.00 0.00 0.00 99 1007.7
20260506032401 52 0.0 0.0 0.00 0.00 0.00 99 1007.7
20260506031904 53 0.0 0.0 0.00 0.00 0.00 98 1008.0
20260506031400 53 0.0 0.0 0.00 0.00 0.00 98 1008.1
20260506030904 53 0.0 0.0 0.00 0.00 0.00 98 1007.7
20260506030838 53 0.0 0.0 0.00 0.00 0.00 96 1008.1
20260506030027 53 0.0 0.0 0.00 0.00 0.00 93 1008.0
20260506024400 53 0.0 0.0 0.00 0.00 0.00 93 1007.5
20260506023904 53 0.0 0.0 0.00 0.00 0.00 93 1007.7
20260506020359 53 0.0 0.0 0.00 0.00 0.00 93 1008.8
20260506015902 53 0.0 0.0 0.00 0.00 0.00 93 1008.7
20260506015358 53 0.0 0.0 0.00 0.00 0.00 93 1008.3
20260506014902 53 0.0 0.0 0.00 0.00 0.00 94 1008.3
20260506014405 53 0.0 0.0 0.00 0.00 0.00 93 1007.9
20260506013902 53 0.0 0.0 0.00 0.00 0.00 94 1007.6
20260506013405 54 0.0 0.0 0.00 0.00 0.00 94 1008.1
20260506012901 53 0.0 0.0 0.00 0.00 0.00 93 1008.6
20260506012405 53 0.0 0.0 0.00 0.00 0.00 93 1008.5
20260506011901 54 0.0 0.0 0.00 0.00 0.00 93 1008.3
20260506011404 54 0.0 0.0 0.00 0.00 0.00 92 1009.1
20260506010901 53 0.0 0.0 0.00 0.00 0.00 92 1008.5
20260506010404 53 0.0 0.0 0.00 0.00 0.00 92 1009.3
20260506005901 53 0.0 0.0 0.00 0.00 0.00 92 1009.4
20260506005404 53 0.0 0.0 0.00 0.00 0.00 94 1009.6
20260506004900 53 0.0 0.0 0.00 0.00 0.00 95 1009.4
20260506003901 53 0.0 0.0 0.00 0.00 0.00 95 1008.7
20260506003404 52 0.0 0.0 0.00 0.00 0.00 96 1009.7
20260506002900 53 0.0 0.0 0.00 0.00 0.00 96 1009.3
20260506002404 53 0.0 0.0 0.00 0.00 0.00 95 1009.7
20260506001900 53 0.0 0.0 0.00 0.00 0.00 96 1009.6
20260506001403 53 0.0 0.0 0.00 0.00 0.00 97 1009.7
20260506000900 53 0.0 0.0 0.00 0.00 0.00 97 1010.4
20260506000403 53 0.0 0.0 0.00 0.00 0.00 97 1010.6
20260505235900 53 0.0 0.0 0.00 0.00 0.00 96 1010.3
20260505235403 53 0.0 0.0 0.00 0.00 0.00 96 1010.6
20260505234859 53 0.0 0.0 0.00 0.00 0.00 96 1009.7
20260505234403 53 0.0 0.0 0.00 0.00 0.00 96 1010.0
20260505233859 52 0.0 0.0 0.00 0.00 0.00 96 1010.7
20260505233402 52 0.0 0.0 0.00 0.00 0.00 97 1010.0
20260505232859 52 0.0 0.0 0.00 0.00 0.00 96 1010.0
20260505232402 52 0.0 0.0 0.00 0.00 0.00 96 1010.4
20260505231859 52 0.0 0.0 0.00 0.00 0.00 96 1010.7
20260505231402 53 0.0 0.0 0.00 0.00 0.00 96 1010.3
20260505230905 53 0.0 0.0 0.00 0.00 0.00 95 1010.5